Home > Weather > La-Chaux-de-Fonds > Past weeks

Flag for Switzerland Weather for the Past 2 Weeks in La-Chaux-de-Fonds, Neuchâtel, Switzerland

Now
37 °F

Sprinkles. Passing clouds.


Feels Like: 26 °F
Forecast: 31 / 35 °F
Wind: 23 mph from Southwest

Location: Les Eplatures

Current Time: Feb 13, 2016 at 8:38:58 PM

Latest Report: Feb 13, 2016 at 8:20 PM


Visibility: N/A

Pressure: 29.21 "Hg (25.81 "Hg at 1000m altitude)

Humidity: 87%

Dew point: 34 °F

Location of La-Chaux-de-FondsLocation

Historic Weather in La-Chaux-de-Fonds — Graph

°F

La-Chaux-de-Fonds Temperature Yesterday

Maximum temperature yesterday: 34 °F (at 6:50 PM)
Minimum temperature yesterday: 21 °F (at 7:20 AM)
Average temperature yesterday: 30 °F

High & Low Weather Summary for the Past Weeks

 TemperatureHumidityPressure
High50 °F (Feb 6, 1:20 PM)100% (Jan 29, 7:20 PM)30.42 "Hg (Jan 29, 7:20 PM)
Low18 °F (Feb 11, 7:50 AM)40% (Feb 6, 1:20 PM)29.18 "Hg (Feb 13, 2:50 PM)
Average36 °F88%29.93 "Hg
* Reported Jan 29 7:20 PM — Feb 13 7:20 PM, La-Chaux-de-Fonds, Weather by CustomWeather, © 2016

Note: Actual official high and low records may vary slightly from our data, if they occured in-between our weather recording intervals... More about our weather records

Advertising

La-Chaux-de-Fonds Weather History for the Previous 24 Hours

 ConditionsComfort  
Time TempWeatherWind HumidityBarometerVisibility
7:20 PM
Sat, Feb 13
37 °FSprinkles. Partly cloudy.17 mph87%29.21 "HgN/A
6:50 PM37 °FDrizzle. Partly sunny.20 mph87%29.21 "HgN/A
6:20 PM37 °FSprinkles. Broken clouds.21 mph87%29.18 "HgN/A
5:50 PM37 °FSprinkles. Partly sunny.12 mph87%29.18 "HgN/A
5:20 PM37 °FBroken clouds.16 mph87%29.18 "HgN/A
4:50 PM36 °FLow clouds.15 mph93%29.21 "HgN/A
4:20 PM34 °FDrizzle. Broken clouds.10 mph100%29.21 "HgN/A
3:50 PM36 °FRain. Partly sunny.9 mph93%29.18 "HgN/A
3:20 PM37 °FSprinkles. Partly sunny.12 mph87%29.18 "HgN/A
2:50 PM37 °FBroken clouds.9 mph81%29.18 "HgN/A
2:20 PM39 °FScattered clouds.12 mph81%29.21 "HgN/A
1:50 PM37 °FSprinkles. Partly sunny.12 mph87%29.21 "HgN/A
1:20 PM36 °FPartly sunny.14 mph93%29.24 "HgN/A
12:50 PM37 °FPartly sunny.16 mph81%29.24 "HgN/A
12:20 PM39 °FPartly sunny.13 mph75%29.24 "HgN/A
11:50 AM36 °FScattered clouds.15 mph81%29.27 "HgN/A
11:20 AM36 °FBroken clouds.15 mph81%29.27 "HgN/A
10:50 AM34 °FBroken clouds.9 mph87%29.30 "HgN/A
10:20 AM34 °FBroken clouds.12 mph93%29.30 "HgN/A
9:50 AM34 °FBroken clouds.7 mph93%29.30 "HgN/A
9:20 AM34 °FBroken clouds.3 mph93%29.33 "HgN/A
8:50 AM34 °FBroken clouds.3 mph93%29.33 "HgN/A
8:20 AM34 °FPartly cloudy.7 mph93%29.33 "HgN/A
7:50 AM34 °FSnow flurries. Partly cloudy.6 mph93%29.33 "HgN/A
7:20 AM34 °FSnow flurries. Partly cloudy.6 mph93%29.33 "HgN/A
6:50 AM34 °FSnow flurries. Passing clouds.9 mph93%29.33 "HgN/A
6:20 AM34 °FLight snow. Partly cloudy.8 mph93%29.36 "HgN/A
5:50 AM34 °FLight snow. Passing clouds.13 mph100%29.36 "HgN/A
5:20 AM34 °FLight snow. Partly cloudy.6 mph93%29.36 "HgN/A
4:20 AM34 °FSnow. Dense fog.7 mph93%29.36 "Hg1 mi
3:20 AM34 °FLight snow. Low clouds.12 mph93%29.36 "Hg5 mi
2:20 AM34 °FLight snow. Partly cloudy.9 mph93%29.33 "Hg4 mi
1:50 AM34 °FLight snow. Dense fog.9 mph100%29.33 "Hg2 mi
1:20 AM34 °FLight snow. Low clouds.10 mph100%29.33 "Hg6 mi
12:50 AM34 °FLight snow. Partly cloudy.9 mph93%29.33 "HgN/A
12:20 AM34 °FLight snow. Fog.9 mph93%29.33 "Hg3 mi
11:50 PM
Fri, Feb 12
34 °FLight snow. Fog.9 mph93%29.30 "Hg2 mi
10:50 PM34 °FLight snow. Partly cloudy.10 mph93%29.30 "Hg4 mi
10:20 PM32 °FSnow. Low clouds.7 mph100%29.30 "Hg1 mi
9:50 PM32 °FLight snow. Low clouds.6 mph100%29.30 "Hg1 mi
9:20 PM32 °FLight snow. Partly cloudy.5 mph100%29.30 "Hg2 mi
8:50 PM34 °FSnow flurries. Partly cloudy.6 mph93%29.30 "Hg2 mi
8:20 PM34 °FSnow flurries. Passing clouds.10 mph93%29.30 "HgN/A
Weather by CustomWeather, © 2016

See weather overviewHow to use our weather pages